Weather Roundup
Issued by NWS

Home | Current Version | Previous Version | Text Only | Print | Product List | Glossary On
Versions: 1 2 3 4 5 6 7 8 9 10 11 12 13 14 15 16 17 18 19 20 21 22 23 24 25 26 27 28 29 30 31 32 33 34 35 36 37 38 39 40 41 42 43 44 45 46 47 48 49 50
000
NZUS93 KARX 280210
HRRWXR

CURRENT HOURLY OBSERVATIONS ACROSS
MUCH OF THE UPPER MISSISSIPPI VALLEY
NATIONAL WEATHER SERVICE LA CROSSE WI
900 PM CDT TUE SEP 27 2016


...SOUTHEAST MINNESOTA...


CITY           SKY/WX    TMP DP  RH WIND       PRES   REMARKS
ROCHESTER      CLOUDY    49  47  93 N8        29.84S
ROCHESTER/MAYO CLOUDY    48  48  99 W10       29.84S
WINONA         LGT RAIN  50  46  87 NW6       29.82S
AUSTIN         CLOUDY    50  45  81 N8        29.85R
ALBERT LEA     CLOUDY    54  45  71 N14       29.85R
DODGE CENTER   CLOUDY    48  45  87 N8        29.85S
PRESTON        LGT RAIN  47  44  88 N8G16     29.84S
OWATONNA       CLOUDY    50  45  81 NW8       29.86S
FARIBAULT      CLOUDY    50  46  87 NW7       29.87R
$$

...ELSEWHERE IN MINNESOTA...


CITY           SKY/WX    TMP DP  RH WIND       PRES   REMARKS
MINNEAPOLIS    MOCLDY    50  46  86 NW10      29.86R
INTNL FALLS    CLOUDY    50  46  86 N9        29.93R
DULUTH         CLOUDY    49  46  90 N10       29.83R
RED WING       CLOUDY    48  46  93 NW7       29.83S
REDWOOD FALLS  CLOUDY    55  43  63 NE8       29.89R
MANKATO        CLOUDY    51  44  77 N8        29.88R
WORTHINGTON    CLOUDY    54  36  50 NW9       29.88R
FAIRMONT       CLOUDY    59  37  44 N9        29.86R
$$

...SOUTHWEST WISCONSIN...


CITY           SKY/WX    TMP DP  RH WIND       PRES   REMARKS
LA CROSSE      LGT RAIN  52  48  86 NW9       29.81S
PRAIRIE DU CHI LGT RAIN  55  44  68 N12G17    29.82R
BOSCOBEL       LGT RAIN  53  46  77 NW9       29.83R
LONE ROCK      LGT RAIN  51  45  79 W8        29.82R
PLATTEVILLE    CLOUDY    55  46  70 NE8       29.79R
FORT MC COY    DRIZZLE   48  47  98 W5        29.81S
CAMP DOUGLAS   PTCLDY    48  47  95 W6        29.79R
MAUSTON-NEW LI DRIZZLE   49  47  95 W5        29.78S
VIROQUA        CLOUDY    48  47  97 NW6       29.81S
WIS DELLS      DRIZZLE   47  46  93 W5        29.79S
$$

...ELSEWHERE IN WISCONSIN...


CITY           SKY/WX    TMP DP  RH WIND       PRES   REMARKS
MILWAUKEE      LGT RAIN  54  48  80 W9        29.80R
MADISON        LGT RAIN  49  46  90 NW7       29.80R
GREEN BAY      CLOUDY    50  50 100 W7        29.73R
EAU CLAIRE     CLOUDY    48  46  93 NW6       29.81R
BLACK RVR FLS  LGT RAIN  48  48 100 NW5       29.80R
MEDFORD        CLOUDY    46  46 100 NW7       29.76S
WAUSAU         CLOUDY    48  46  93 NW7       29.74R
WIS RAPIDS     LGT RAIN  48  48 100 NW7       29.78R
MARSHFIELD     CLOUDY    49  45  86 NW10      29.76R
RICE LAKE      CLOUDY    47  44  89 NW5       29.83R
$$

...NORTHEAST IOWA...


CITY           SKY/WX    TMP DP  RH WIND       PRES   REMARKS
WATERLOO       CLOUDY    59  37  44 N7        29.79R
DUBUQUE        CLOUDY    56  40  55 N6        29.78S
DECORAH        CLOUDY    52  46  82 N14       29.83R
MASON CITY     CLOUDY    58  38  47 N13       29.84R
CHARLES CITY   CLOUDY    57  37  47 N10G16    29.82R
OELWEIN        CLOUDY    59  37  44 NW8       29.81R
$$

...ELSEWHERE IN IOWA...


CITY           SKY/WX    TMP DP  RH WIND       PRES   REMARKS
DES MOINES     PTCLDY    64  46  52 W5        29.82R
IOWA CITY      CLOUDY    61  44  53 W5        29.79S
FORT DODGE     CLOUDY    63  39  42 N5        29.83R
MARSHALLTOWN   CLOUDY    60  46  59 NW5       29.79R
CEDAR RAPIDS   CLOUDY    60  43  53 NW6       29.77S
$$

...NORTHERN ILLINOIS...


CITY           SKY/WX    TMP DP  RH WIND       PRES   REMARKS
CHICAGO-OHARE  MOCLDY    60  44  55 NE9       29.77R
CHICAGO-MIDWAY MOCLDY    64  34  32 SW5       29.77S
MOLINE         PTCLDY    61  43  51 W3        29.77R
ROCKFORD       CLOUDY    59  41  51 N12G17    29.80R
PEORIA         PTCLDY    59  45  59 CALM      29.80S
$$

NOTE: "FAIR" INDICATES FEW OR NO CLOUDS BELOW 12,000 FEET WITH NO
SIGNIFICANT WEATHER AND/OR OBSTRUCTIONS TO VISIBILITY. WIND
SPEEDS ARE IN MILES-PER-HOUR.




USA.gov is the U.S. government's official web portal to all federal, state and local government web resources and services.